CW3742 Weather Reports


Display with metric or nautical units.
time (UTC)temp
F
wind
direction
speed
MPH
gust
MPH
rain 1hr
in
rain 24hr
in
rain mn
in
humidity
%
barometer
mb
20260507143037 56 0 17.0 23.0 0.00 0.00 0.00 55 994.5
20260507140017 53 0 13.0 21.0 0.00 0.00 0.00 56 994.5
20260507133017 51 0 10.0 20.0 0.00 0.00 0.00 56 994.8
20260507130017 51 0 11.0 21.0 0.00 0.00 0.00 57 995.4
20260507123017 46 0 6.0 10.0 0.00 0.00 0.00 65 995.4
20260507120017 43 0 6.0 9.0 0.00 0.00 0.00 69 995.4
20260507113017 42 0 6.0 9.0 0.00 0.00 0.00 69 995.6
20260507110017 41 0 7.0 10.0 0.00 0.00 0.00 70 995.4
20260507103017 40 0 7.0 10.0 0.00 0.00 0.00 71 995.6
20260507100017 41 0 6.0 9.0 0.00 0.00 0.00 68 995.6
20260507093017 42 0 5.0 7.0 0.00 0.00 0.00 64 995.8
20260507090017 43 0 5.0 7.0 0.00 0.00 0.00 63 996.1
20260507083019 43 0 4.0 6.0 0.00 0.00 0.00 61 996.3
20260507080017 43 0 4.0 5.0 0.00 0.00 0.00 60 996.3
20260507073017 44 0 4.0 6.0 0.00 0.00 0.00 58 996.5
20260507070017 45 0 5.0 7.0 0.00 0.00 0.00 57 996.5
20260507063019 44 0 5.0 6.0 0.00 0.00 0.00 57 997.0
20260507060017 46 0 4.0 6.0 0.00 0.00 0.00 53 997.2
20260507053017 47 0 3.0 5.0 0.00 0.00 0.00 50 997.4
20260507050018 48 0 2.0 3.0 0.00 0.00 0.00 47 997.4
20260507043017 47 0 2.0 2.0 0.00 0.00 0.00 49 997.3
20260507040017 48 0 2.0 3.0 0.00 0.00 0.00 48 997.3
20260507033017 49 0 1.0 3.0 0.00 0.00 0.00 47 997.4
20260507030017 50 0 3.0 4.0 0.00 0.00 0.00 45 997.3
20260507023017 50 0 4.0 5.0 0.00 0.00 0.00 46 997.3
20260507020017 50 0 5.0 8.0 0.00 0.00 0.00 46 997.0
20260507013037 50 0 8.0 11.0 0.00 0.00 0.00 43 996.8
20260507010038 52 0 9.0 15.0 0.00 0.00 0.00 40 996.6
20260507003017 54 0 14.0 23.0 0.00 0.00 0.00 37 996.6
20260507000017 56 0 10.0 23.0 0.00 0.00 0.00 36 996.7
20260506233017 56 0 15.0 27.0 0.00 0.00 0.00 35 996.7
20260506230017 56 0 14.0 26.0 0.00 0.00 0.00 35 996.9
20260506223017 57 0 15.0 28.0 0.00 0.00 0.00 35 997.0
20260506220017 56 0 17.0 30.0 0.00 0.00 0.00 40 996.9
20260506213017 56 0 13.0 30.0 0.00 0.00 0.00 37 996.9
20260506210017 57 0 13.0 28.0 0.00 0.00 0.00 36 997.0
20260506203017 56 0 12.0 29.0 0.00 0.00 0.00 37 997.2
20260506200017 55 0 13.0 26.0 0.00 0.00 0.00 37 997.5
20260506193038 56 0 12.0 28.0 0.00 0.00 0.00 40 997.5
20260506190018 56 0 14.0 27.0 0.00 0.00 0.00 37 997.6
20260506183017 54 0 13.0 29.0 0.00 0.00 0.00 40 997.6
20260506180017 54 0 14.0 27.0 0.00 0.00 0.00 39 997.9
20260506173018 53 0 13.0 26.0 0.00 0.00 0.00 41 997.9
20260506170017 54 0 14.0 25.0 0.00 0.00 0.00 41 997.8
20260506163017 53 0 12.0 23.0 0.00 0.00 0.00 41 997.8
20260506160017 52 0 10.0 21.0 0.00 0.00 0.00 45 997.8
20260506153038 51 0 9.0 17.0 0.00 0.00 0.00 49 997.7
20260506150017 50 0 7.0 16.0 0.00 0.00 0.00 53 997.8